Theta_e
310 308 312 314 313 308 316 320 320 321 320 321 327 329 329 327 329 331 332 330 329 328 328 325 323 321 321 323 321 320 329 331 331 327 326 320 326 323 325 329 330 331 329 326 329
311 309 309 309 315 311 309 317 320 321 321 318 322 326 329 327 330 330 329 330 328 329 325 323 322 322 324 324 321 324 327 328 325 324 324 322 323 324 327 329 330 330 329 327 326
311 311 309 310 309 314 308 311 318 321 321 321 318 325 328 328 330 330 329 329 329 329 329 323 322 322 324 324 322 322 324 325 323 320 318 321 321 325 326 329 328 329 329 327 327
313 311 310 309 310 311 314 307 315 319 321 321 319 322 327 328 331 328 328 329 328 329 326 324 322 323 324 326 323 324 322 322 322 317 319 322 321 323 326 326 325 327 327 326 326
313 313 312 310 309 311 313 309 307 318 320 321 320 320 325 326 327 324 327 328 327 326 323 322 322 322 324 323 321 326 324 322 322 321 321 317 321 323 322 325 324 322 322 324 325
313 313 312 312 308 310 310 313 306 310 319 321 321 319 323 324 325 324 323 323 323 324 322 321 321 322 323 323 323 323 323 324 322 320 318 319 321 316 320 320 322 323 321 323 323
311 313 312 312 308 310 310 311 312 306 317 320 321 320 323 322 323 324 323 321 325 324 321 321 321 321 323 324 322 323 325 324 324 325 323 317 322 319 321 319 319 322 324 321 323
310 312 313 312 309 309 311 310 313 307 315 319 321 321 320 321 322 323 323 324 324 325 325 322 321 321 321 318 321 326 326 329 326 322 323 322 331 327 322 319 321 321 322 322 321
310 311 312 312 310 310 312 310 311 310 313 318 320 321 320 320 322 322 323 324 324 322 321 321 322 322 321 323 325 322 329 327 327 320 320 321 330 328 322 318 320 322 321 322 324
309 311 312 312 311 309 311 309 311 309 313 317 318 320 317 320 320 321 322 322 322 321 320 319 322 322 322 325 331 328 326 323 326 323 319 324 323 325 320 318 321 322 321 320 322
309 310 310 312 311 309 311 310 312 310 313 315 316 316 317 319 319 321 321 322 320 321 322 321 321 319 319 322 322 322 322 322 320 321 321 323 323 322 321 321 320 321 321 320 320
308 310 310 312 312 309 310 312 311 311 313 313 315 315 315 317 319 319 321 321 321 322 321 322 321 319 318 321 323 322 323 321 321 319 319 322 323 322 321 321 321 322 322 322 321
307 308 310 312 311 309 309 311 310 312 312 311 314 315 316 317 318 320 320 320 321 322 322 323 321 320 321 322 324 323 322 321 322 320 321 321 324 323 322 320 320 320 321 322 324
306 307 307 308 311 309 309 311 309 311 312 311 312 314 316 317 317 318 320 320 320 321 321 322 318 321 322 323 323 324 320 321 321 320 325 320 326 323 321 320 318 317 319 319 319
303 306 306 307 309 309 309 311 309 309 314 310 311 311 315 316 316 319 320 318 320 320 320 320 321 322 323 323 321 322 321 322 321 322 322 321 323 321 321 321 321 320 320 318 317
304 304 306 308 310 307 311 310 308 309 311 309 309 312 313 313 313 317 318 315 317 319 319 319 318 320 321 320 321 319 321 321 322 323 325 322 322 321 322 322 321 320 320 319 318
304 303 304 306 308 310 310 308 308 312 307 309 311 312 313 313 313 315 317 318 316 319 320 319 318 317 318 321 320 321 322 325 326 325 322 317 322 322 321 320 319 319 319 319 318
302 303 304 305 309 310 309 309 312 307 308 308 309 312 313 312 312 313 317 318 313 315 318 319 321 319 318 320 321 321 321 322 322 324 321 316 322 322 320 320 320 318 317 317 317
303 305 305 307 308 309 308 310 308 308 307 309 309 311 312 312 312 313 315 315 316 315 317 319 317 317 318 317 319 321 321 319 317 308 319 319 319 317 317 317 316 315 316 317 317
303 305 304 305 309 308 308 309 306 305 307 309 310 309 311 312 312 312 313 312 314 315 313 314 317 315 317 317 318 320 318 321 318 325 323 320 319 319 317 316 317 317 316 316 315
304 305 304 302 308 308 309 306 306 306 307 309 309 310 309 311 311 311 311 310 311 315 314 315 315 316 317 319 319 319 320 318 320 320 324 323 320 318 319 318 317 315 314 313 313
304 304 304 304 308 306 307 306 307 307 307 307 307 308 309 310 310 311 311 310 310 310 315 314 314 316 316 316 315 318 318 319 321 320 319 319 319 315 316 314 311 314 314 312 312
302 305 304 306 307 306 306 307 307 308 308 307 307 307 307 309 309 309 308 306 307 311 311 314 314 315 314 314 314 318 318 318 318 317 320 320 319 315 315 314 314 311 314 315 315
304 306 306 308 305 306 307 308 307 305 305 305 306 307 307 308 305 309 308 308 307 310 311 312 312 312 312 311 312 314 315 317 319 319 319 319 318 317 316 317 317 315 315 316 315
303 301 301 303 306 308 308 307 307 307 304 305 307 307 308 308 307 307 308 307 308 308 310 312 313 311 312 310 313 315 315 314 316 318 317 317 318 317 317 317 316 314 314 315 315
301 301 302 303 305 307 307 307 307 305 306 305 308 307 307 307 307 307 308 308 309 308 310 310 314 311 311 311 311 311 311 312 313 315 317 318 319 318 316 315 315 315 315 315 315
303 304 306 305 306 307 307 307 305 305 302 304 307 307 307 306 306 306 307 307 308 309 310 310 310 310 311 310 311 312 311 310 311 311 313 316 316 315 314 313 311 310 310 311 311
Wind_Speed
34 36 37 32 32 38 35 33 32 28 31 33 31 28 27 25 27 28 31 24 22 11 12 11 11 7 3 3 3 5 4 6 5 5 1 5 8 4 5 4 6 7 3 4 9
38 37 36 38 31 33 38 37 33 32 27 31 32 31 29 27 29 34 34 26 19 21 11 10 10 8 3 4 2 5 4 6 1 3 2 5 7 8 6 8 7 6 10 7 9
40 39 38 36 38 30 36 38 35 32 31 26 30 29 30 33 29 28 33 28 24 17 20 11 10 10 5 5 5 3 5 4 3 4 5 4 6 7 7 7 10 10 11 12 13
43 42 40 38 37 36 30 38 37 34 33 29 28 29 26 27 16 15 32 33 29 21 17 17 12 8 6 7 6 6 5 3 2 2 3 4 5 6 12 6 4 8 9 12 15
44 44 43 41 39 38 35 34 37 34 31 30 28 29 25 25 23 12 23 26 23 22 17 15 14 10 10 6 6 7 4 5 6 6 6 3 7 8 12 13 10 7 9 13 16
45 46 45 43 40 39 38 32 35 36 31 31 28 29 29 23 14 28 26 23 23 22 21 17 9 12 8 6 9 5 6 6 2 3 4 6 7 5 9 11 13 14 11 13 16
44 45 46 44 41 39 39 35 32 36 33 30 31 28 27 28 16 12 26 29 29 29 20 17 11 9 8 8 5 5 5 4 9 10 5 4 11 11 13 9 11 12 12 14 16
46 46 45 46 43 40 37 38 32 34 33 30 32 29 13 24 18 16 25 22 27 21 19 14 14 8 2 8 4 6 4 10 6 7 5 8 20 14 13 14 16 15 14 16 19
48 46 47 47 45 40 37 37 33 30 32 29 28 29 10 21 27 22 21 27 27 23 18 13 10 3 3 7 4 3 13 9 7 8 2 11 15 16 12 11 18 19 19 18 18
48 47 49 49 47 42 37 33 28 26 27 25 29 13 10 26 31 28 27 31 27 21 13 9 8 3 2 10 15 9 8 6 9 3 7 13 17 15 7 8 16 19 19 19 19
41 44 43 49 48 43 37 31 20 12 31 25 12 13 21 21 27 30 28 26 19 18 10 12 5 10 13 8 4 5 5 5 0 3 4 14 18 21 22 22 20 19 19 23 25
43 43 36 50 51 45 41 38 42 19 19 30 16 26 14 21 9 30 33 18 14 13 13 6 18 23 12 9 12 6 6 3 4 2 2 13 18 22 23 21 25 28 28 25 20
42 42 39 41 48 44 50 48 39 27 10 17 15 16 19 21 17 28 36 17 14 13 18 11 5 15 18 16 14 8 5 3 1 7 10 13 22 24 18 25 29 31 33 33 34
32 42 35 42 44 52 51 45 39 30 6 7 10 9 16 12 8 29 35 18 8 16 16 10 5 18 19 22 18 18 13 11 7 2 3 5 8 18 17 16 17 25 31 36 38
40 35 37 42 30 48 53 51 44 21 9 14 8 12 18 17 14 15 30 9 16 13 9 9 16 17 22 23 17 11 15 17 12 10 10 16 7 8 8 14 18 26 28 32 33
41 37 34 36 38 53 49 49 34 5 8 9 12 12 8 8 5 14 16 13 1 8 4 7 4 7 8 11 18 11 11 6 4 5 9 18 15 10 9 9 14 22 26 25 24
42 38 37 40 46 49 55 48 7 6 10 12 10 14 11 7 5 5 9 8 8 7 7 5 4 4 9 11 8 11 11 3 4 5 10 3 10 17 10 15 16 17 18 13 14
41 39 38 38 33 57 60 16 7 6 9 6 15 18 22 9 8 4 11 8 4 3 5 10 8 15 9 9 7 16 12 4 6 7 3 4 10 6 20 28 28 26 23 24 25
41 39 39 39 49 62 41 14 6 14 12 17 22 23 12 14 9 12 12 12 10 15 11 11 5 4 9 5 11 7 7 8 1 0 2 5 11 12 15 15 14 17 17 19 21
44 37 37 31 53 62 17 8 5 9 16 22 12 17 18 20 15 18 16 14 11 19 2 3 4 2 11 6 6 6 11 4 3 6 7 9 11 10 3 8 12 13 12 13 19
41 19 29 41 40 47 14 5 7 20 26 12 11 15 18 22 22 16 17 9 19 20 19 6 3 4 9 10 14 4 4 4 3 4 3 4 8 5 13 12 9 8 8 18 25
27 6 28 44 14 8 10 12 14 19 7 5 7 6 17 22 17 18 16 11 14 22 20 11 2 5 10 4 1 16 13 13 4 6 4 6 13 8 8 5 4 15 21 19 10
27 9 20 52 8 8 10 17 11 15 8 4 4 4 5 14 9 14 11 3 9 16 15 14 8 5 4 4 7 9 18 18 18 0 13 7 15 5 2 5 10 13 21 28 32
17 5 12 24 17 23 21 17 12 6 5 8 7 14 15 13 4 12 9 2 7 14 10 20 6 14 13 6 6 11 16 19 19 9 20 16 32 29 20 17 22 24 27 30 34
6 2 4 6 11 18 17 15 20 9 5 7 4 9 9 7 4 3 8 4 5 3 10 12 8 15 18 6 2 3 4 17 22 27 16 26 25 39 14 14 16 14 23 30 32
8 6 13 6 28 21 16 17 20 8 4 4 11 12 8 8 9 9 13 10 6 2 10 3 2 5 5 12 11 13 14 15 14 13 13 24 26 44 22 22 20 23 24 27 32
9 25 23 17 16 16 10 18 16 13 10 8 18 11 12 9 15 12 9 8 9 9 9 7 5 3 5 6 4 7 25 22 23 21 20 19 31 28 19 20 25 28 30 31 34
Wind_Direction
233 233 233 232 225 225 224 222 226 227 227 223 224 222 221 217 220 221 225 228 224 222 221 228 221 222 198 137 130 148 213 228 231 203 144 172 195 167 194 175 193 202 192 219 189
231 233 230 229 228 223 221 221 223 223 226 223 224 221 225 216 223 223 221 225 223 223 221 215 210 200 175 152 164 211 229 214 257 216 217 197 214 176 182 194 217 218 227 223 201
230 230 229 228 227 226 221 219 219 223 222 224 224 220 222 221 214 232 224 221 220 221 222 218 204 192 197 169 176 187 239 188 195 252 245 218 204 187 201 213 224 224 214 219 205
230 227 229 229 226 224 224 218 217 221 220 221 221 219 214 212 218 216 228 220 219 217 217 210 188 181 192 194 180 207 225 211 183 177 215 213 171 203 215 222 194 218 218 223 213
229 227 225 228 228 221 220 219 217 216 219 217 218 216 210 220 225 228 206 221 209 195 202 202 178 182 202 186 170 218 192 211 242 256 277 242 229 224 232 225 220 233 236 229 223
229 224 223 225 227 222 217 218 216 215 216 214 218 212 208 220 238 239 242 222 186 185 194 194 198 197 172 179 210 192 211 221 235 235 242 237 248 225 235 221 222 231 232 230 229
226 222 220 221 223 219 217 216 216 211 210 214 216 211 209 217 220 216 206 209 207 194 181 189 182 172 161 150 168 163 227 230 230 237 242 216 244 231 232 218 217 226 226 230 230
223 221 218 217 219 216 217 213 215 211 204 213 217 201 214 212 208 203 213 196 209 216 217 182 177 154 148 127 112 199 212 239 184 198 224 207 254 237 245 234 232 231 233 235 234
220 218 215 214 215 212 214 209 211 210 204 208 214 178 203 186 198 199 203 194 181 180 178 200 174 112 147 177 178 219 235 225 247 213 204 212 258 258 246 239 247 243 241 240 238
219 214 213 212 209 208 205 199 202 199 202 207 213 189 214 190 193 189 194 198 185 195 184 188 104 16 189 202 214 211 221 220 228 178 228 238 252 250 255 248 252 253 248 246 243
215 217 218 206 205 201 194 183 166 180 198 197 206 177 176 180 187 192 182 172 175 174 181 191 169 209 240 257 297 158 185 240 267 278 271 254 259 267 260 252 251 253 252 248 245
210 205 201 208 204 194 190 187 186 194 184 203 218 199 199 164 147 170 176 164 170 186 163 150 215 214 202 238 237 198 180 169 333 355 314 277 270 272 260 252 252 249 247 249 248
206 207 204 191 192 189 193 193 176 158 148 195 197 189 180 180 187 175 181 186 183 175 186 200 257 190 181 186 192 198 176 146 150 351 290 289 275 269 255 245 250 249 248 249 248
202 203 204 200 200 189 193 186 175 163 153 173 193 208 182 171 209 186 182 172 180 186 180 220 178 171 184 188 194 212 200 200 200 57 277 325 290 275 276 259 249 254 246 247 246
203 203 200 202 193 183 186 184 171 182 195 158 156 180 171 187 144 190 185 191 173 159 174 170 172 183 183 196 196 229 172 193 204 214 267 258 262 262 257 264 259 254 252 248 250
199 197 197 191 196 187 180 170 163 160 174 156 149 181 135 165 147 165 180 151 353 151 117 150 168 172 174 179 191 145 135 155 162 206 249 251 224 258 261 253 257 256 254 256 255
195 195 196 192 192 182 172 157 161 207 155 153 168 169 163 161 125 198 184 166 172 159 167 125 194 163 161 154 188 178 161 171 187 194 246 32 223 251 250 240 244 255 258 271 265
194 193 193 200 173 171 162 165 194 122 161 173 163 157 183 155 194 173 175 191 200 105 136 171 189 184 187 201 180 189 186 190 214 210 249 97 240 250 243 247 262 260 272 281 284
190 190 188 201 181 172 162 171 153 160 154 147 147 167 176 181 153 185 208 197 173 187 192 185 186 192 184 155 168 163 201 238 271 318 262 221 258 260 253 252 264 271 270 282 299
178 178 189 182 171 165 170 162 115 167 141 148 144 173 176 186 176 191 186 198 190 198 262 195 155 220 182 204 216 201 142 148 184 213 231 234 263 250 240 265 237 260 280 297 325
174 169 192 197 175 163 177 107 129 151 140 162 153 157 182 180 194 192 194 173 194 189 187 156 183 134 164 203 193 144 177 221 191 184 240 277 249 252 234 262 298 302 298 306 319
163 153 187 191 165 165 157 143 135 151 136 120 125 128 168 177 190 196 198 220 190 180 192 175 148 182 200 132 279 211 204 194 197 195 251 305 267 209 249 255 301 300 307 321 331
155 140 190 175 158 145 120 125 132 153 146 107 112 152 138 164 176 205 201 185 175 187 190 177 212 197 198 225 212 219 220 229 232 294 239 248 265 60 269 290 318 322 324 323 319
150 147 155 175 157 136 133 141 127 114 72 82 110 122 119 159 22 181 181 159 171 201 172 165 197 211 219 225 187 208 223 220 226 231 243 238 264 260 260 275 300 301 300 303 311
115 120 123 145 148 142 123 142 138 139 95 129 109 167 131 143 135 159 163 142 82 161 167 186 218 219 238 241 95 181 232 235 230 236 235 249 253 266 268 286 299 308 302 302 301
126 144 98 101 142 138 121 158 146 122 158 103 137 132 115 141 172 164 168 178 176 109 168 173 135 185 246 236 244 250 248 239 235 258 246 259 269 263 293 287 289 288 297 297 296
183 132 129 144 142 150 155 151 141 129 41 122 143 120 86 86 101 100 145 117 141 176 166 179 146 149 229 194 194 255 238 246 248 240 236 250 251 281 280 283 285 288 291 290 292